Simultaneous Nadir Overpasses (SNOs) Predictions

Prediction of SNOs between LANDSAT-8 and METOP-B Satellite Orbit:

Table of predicted SNOs for the next 14.0 days since TLE Epoch: 12/26/2020
Index Date (LANDSAT-8) Time (LANDSAT-8) Lat,Lon (LANDSAT-8) SZA (LANDSAT-8 ) Date (METOP-B) Time (METOP-B) Lat,Lon (METOP-B) SZA (METOP-B ) Distance(km) Time Diff (sec)
1 12/28/2020 03:12:09 81.11, 171.68 106.24 12/28/2020 03:11:09 81.11, 171.51 106.20 3.10 60
2 12/28/2020 04:01:35 -81.13, -20.36 73.72 12/28/2020 04:01:47 -81.14, -20.24 73.70 2.14 12
3 12/30/2020 22:46:23 81.12,-121.76 106.05 12/30/2020 22:45:32 81.12,-121.64 106.04 2.08 51
4 12/30/2020 23:35:49 -81.14, 46.22 73.91 12/30/2020 23:36:11 -81.14, 46.27 73.90 0.94 22
5 01/02/2021 18:20:38 81.10, -55.60 105.74 01/02/2021 18:19:57 81.11, -55.56 105.73 1.03 41
6 01/02/2021 19:10:04 -81.13, 112.40 74.22 01/02/2021 19:10:36 -81.13, 112.39 74.20 0.48 32
7 01/05/2021 13:54:51 81.11, 10.88 105.42 01/05/2021 13:54:20 81.11, 10.88 105.41 0.55 31
8 01/05/2021 14:44:17 -81.13, 178.91 74.54 01/05/2021 14:44:59 -81.13, 178.87 74.52 0.77 42
9 01/08/2021 09:29:04 81.13, 77.69 105.09 01/08/2021 09:28:43 81.12, 77.67 105.07 0.74 21



Historial Predications of SNOs between LANDSAT-8 and METOP-B
